Location: Whitehorse
(60.7170°N, 135.0500°W)
Time: 15:45:34
(UTC-08:00)

SL-16 R/B - Visible Passes

Search period start: 03 December 2016 00:00
Search period end: 13 December 2016 00:00
Orbit: 842 x 848 km, 71.0° (Epoch: 02 December)

Date Brightness Start Highest point End Pass type
(mag) Time Alt. Az. Time Alt. Az. Time Alt. Az.
03 Dec 5.2 04:18:00 10° E 04:18:40 10° E 04:19:19 10° E visible
03 Dec 3.4 05:56:04 10° S 06:01:19 40° ESE 06:06:36 10° NE visible
03 Dec 2.2 07:39:36 10° SW 07:45:16 68° NW 07:50:58 10° NE visible
04 Dec 3.4 05:42:02 10° S 05:47:16 40° ESE 05:52:32 10° NE visible
04 Dec 2.2 07:25:32 10° SW 07:31:12 69° NW 07:36:54 10° NE visible
05 Dec 3.4 05:29:24 17° S 05:33:14 39° ESE 05:38:27 10° NE visible
05 Dec 2.1 07:11:27 10° SW 07:17:08 70° NW 07:22:50 10° NE visible
06 Dec 3.4 05:16:50 26° SSE 05:19:10 38° ESE 05:24:23 10° NE visible
06 Dec 2.1 06:58:47 18° SW 07:03:04 71° NW 07:08:46 10° NE visible
06 Dec 2.9 08:42:53 10° W 08:48:04 35° NNW 08:53:16 10° NE visible
07 Dec 3.4 05:03:59 34° SE 05:05:08 37° ESE 05:10:18 10° NE visible
07 Dec 2.1 06:45:55 28° SW 06:49:00 72° NW 06:54:43 10° NE visible
07 Dec 2.9 08:28:48 10° W 08:33:59 35° NNW 08:39:10 10° NE visible
08 Dec 3.4 04:50:56 36° ESE 04:51:05 36° ESE 04:56:14 10° NE visible
08 Dec 2.1 06:32:52 40° WSW 06:34:56 73° NW 06:40:39 10° NE visible
08 Dec 2.9 08:14:47 10° W 08:19:54 35° NNW 08:25:06 10° NE visible
09 Dec 3.6 04:37:45 34° E 04:37:45 34° E 04:42:09 10° NE visible
09 Dec 2.1 06:19:39 55° WSW 06:20:52 75° NW 06:26:35 10° NE visible
09 Dec 2.9 08:01:34 15° W 08:05:48 35° NNW 08:11:02 10° NE visible
10 Dec 3.8 04:24:27 30° E 04:24:27 30° E 04:28:05 10° NE visible
10 Dec 2.0 06:06:21 71° W 06:06:48 76° NW 06:12:31 10° NE visible
10 Dec 2.9 07:48:15 19° WNW 07:51:44 36° NNW 07:56:58 10° NE visible
11 Dec 4.1 04:11:04 26° ENE 04:11:04 26° ENE 04:14:01 10° NE visible
11 Dec 2.1 05:52:57 76° NNW 05:52:57 76° NNW 05:58:27 10° NE visible
11 Dec 2.9 07:34:51 23° WNW 07:37:39 36° NNW 07:42:53 10° NE visible
12 Dec 4.3 03:57:36 22° ENE 03:57:36 22° ENE 03:59:56 10° NE visible
12 Dec 2.4 05:39:30 65° NNE 05:39:30 65° NNE 05:44:24 10° NE visible
12 Dec 2.9 07:21:24 27° WNW 07:23:34 36° NNW 07:28:49 10° NE visible
